User: anonymous   Login
Location: Fisheating Creek Campgrounds
(26.9333°N, 81.3167°W)
Time: 17:48:06
(UTC-05:00)
Language:

NATO 3D Rocket - Orbit

View from above orbital plane
View from above orbital plane
View from above satellite
View from above satellite

Ground track
Ground track

The orbit data is extracted from the following two-line orbital elements,

1 15392U 84115B   14332.18823459  .00000362  00000-0  19446-3 0  2173
2 15392 021.4920 249.7367 1034603 327.5820 217.6411 12.45441438367725
Epoch (UTC): 28 November 2014 04:31:03
Eccentricity: 0.1034603
inclination: 21.4920°
perigee height: 670 km
apogee height: 2297 km
right ascension of ascending node: 249.7367°
argument of perigee: 327.5820°
revolutions per day: 12.45441438
mean anomaly at epoch: 217.6411°
orbit number at epoch: 36772

The dashed part of the orbit path shows where the satellite is in the earth's shadow,  

DLR